Powrót do katalogu

QIANFAN-191

AktywnyŁącznośćPO
NORAD 69409·PAYLOAD·🇨🇳 China

Wystrzelony Jun 5, 2026 z Wenchang Space Launch Site

Loading…

Następne Przeloty (najbliższe 24 godziny)

TLE

ŚwieżeSource: Space-Track

Epoka: Sep 14, 2026, 20:48 UTC

1 69409U 26125J   26257.86726622  .00000004  00000-0 -12503-4 0  9995
2 69409  88.9881 270.8935 0001941 102.6896 257.4473 13.51032863 14057

Śledź QIANFAN-191 w czasie rzeczywistym z AllMySat

Download on the App Store